TimeEET,TemperatureF,Dew PointF,Humidity,Sea Level PressureIn,VisibilityMPH,Wind Direction,Wind SpeedMPH,Gust SpeedMPH,PrecipitationIn,Events,Conditions,WindDirDegrees,DateUTC
2:00 AM,59,54,77,29.85,6,Calm,Calm,,,,Scattered Clouds,,2012-10-30 00:00:00
2:50 AM,59.0,53.6,82,29.83,6.2,Calm,Calm,-,N/A,,Partly Cloudy,0,2012-10-30 00:50:00
4:20 AM,59.0,51.8,77,29.83,6.2,Calm,Calm,-,N/A,,Scattered Clouds,0,2012-10-30 02:20:00
4:50 AM,59.0,51.8,77,29.86,6.2,Calm,Calm,-,N/A,,Partly Cloudy,0,2012-10-30 02:50:00
5:50 AM,60.8,48.2,63,29.86,6.2,WNW,4.6,-,N/A,,Partly Cloudy,290,2012-10-30 03:50:00
6:20 AM,62.6,46.4,55,29.86,6.2,WNW,4.6,-,N/A,,Partly Cloudy,300,2012-10-30 04:20:00
6:50 AM,62.6,44.6,52,29.83,6.2,WNW,9.2,-,N/A,,Partly Cloudy,300,2012-10-30 04:50:00
7:50 AM,60.8,50.0,68,29.89,6.2,NNW,11.5,-,N/A,,Partly Cloudy,330,2012-10-30 05:50:00
8:00 AM,62,50,54,29.89,6,NNW,11.5,,,,Scattered Clouds,330,2012-10-30 06:00:00
8:20 AM,62.6,50.0,63,29.89,6.2,NNW,9.2,-,N/A,,Partly Cloudy,330,2012-10-30 06:20:00
8:50 AM,62.6,48.2,59,29.89,6.2,NNW,9.2,-,N/A,,Partly Cloudy,330,2012-10-30 06:50:00
9:20 AM,62.6,48.2,59,29.89,6.2,NNW,9.2,-,N/A,,Partly Cloudy,330,2012-10-30 07:20:00
9:50 AM,64.4,46.4,52,29.92,6.2,NW,11.5,-,N/A,,Partly Cloudy,320,2012-10-30 07:50:00
10:20 AM,66.2,48.2,52,29.92,6.2,NNW,11.5,-,N/A,,Partly Cloudy,330,2012-10-30 08:20:00
10:50 AM,66.2,48.2,52,29.92,6.2,NW,10.4,-,N/A,,Partly Cloudy,320,2012-10-30 08:50:00
11:50 AM,66.2,46.4,49,29.92,6.2,NNW,9.2,-,N/A,,Partly Cloudy,330,2012-10-30 09:50:00
12:20 PM,68.0,48.2,49,29.92,6.2,NNW,10.4,-,N/A,,Partly Cloudy,340,2012-10-30 10:20:00
12:50 PM,68.0,48.2,49,29.92,6.2,NNW,10.4,-,N/A,,Partly Cloudy,330,2012-10-30 10:50:00
1:20 PM,68.0,48.2,49,29.92,6.2,NNW,9.2,-,N/A,,Partly Cloudy,340,2012-10-30 11:20:00
1:50 PM,68.0,46.4,46,29.92,6.2,NNW,10.4,-,N/A,,Scattered Clouds,340,2012-10-30 11:50:00
2:00 PM,67,47,38,29.92,6,NNW,10.4,,,,Scattered Clouds,340,2012-10-30 12:00:00
2:20 PM,68.0,46.4,46,29.92,6.2,NNW,11.5,-,N/A,,Scattered Clouds,340,2012-10-30 12:20:00
2:50 PM,66.2,44.6,46,29.92,6.2,NNW,8.1,-,N/A,,Scattered Clouds,330,2012-10-30 12:50:00
3:20 PM,66.2,46.4,49,29.92,6.2,NNW,8.1,-,N/A,,Scattered Clouds,330,2012-10-30 13:20:00
3:50 PM,66.2,44.6,46,29.92,6.2,NW,6.9,-,N/A,,Mostly Cloudy,320,2012-10-30 13:50:00
4:20 PM,66.2,46.4,49,29.92,6.2,NNW,4.6,-,N/A,,Mostly Cloudy,340,2012-10-30 14:20:00
4:50 PM,64.4,46.4,52,29.92,6.2,Calm,Calm,-,N/A,,Mostly Cloudy,0,2012-10-30 14:50:00
5:20 PM,62.6,46.4,55,29.92,6.2,Calm,Calm,-,N/A,,Mostly Cloudy,0,2012-10-30 15:20:00
5:50 PM,60.8,48.2,63,29.92,6.2,Calm,Calm,-,N/A,,Mostly Cloudy,0,2012-10-30 15:50:00
6:20 PM,59.0,50.0,72,29.95,6.2,Calm,Calm,-,N/A,,Mostly Cloudy,0,2012-10-30 16:20:00
6:50 PM,59.0,50.0,72,29.95,6.2,Calm,Calm,-,N/A,,Mostly Cloudy,0,2012-10-30 16:50:00
7:20 PM,57.2,51.8,82,29.95,6.2,Calm,Calm,-,N/A,,Mostly Cloudy,0,2012-10-30 17:20:00
7:50 PM,57.2,50.0,77,29.95,6.2,Calm,Calm,-,N/A,,Mostly Cloudy,0,2012-10-30 17:50:00
8:00 PM,57,49,68,29.97,6,Calm,Calm,,,,Scattered Clouds,,2012-10-30 18:00:00
8:20 PM,57.2,50.0,77,29.95,6.2,Calm,Calm,-,N/A,,Mostly Cloudy,0,2012-10-30 18:20:00
8:50 PM,57.2,50.0,77,29.98,6.2,Calm,Calm,-,N/A,,Mostly Cloudy,0,2012-10-30 18:50:00
9:20 PM,57.2,50.0,77,29.98,6.2,Calm,Calm,-,N/A,,Mostly Cloudy,0,2012-10-30 19:20:00
9:50 PM,55.4,48.2,77,29.98,6.2,Calm,Calm,-,N/A,,Mostly Cloudy,0,2012-10-30 19:50:00
10:20 PM,55.4,48.2,77,29.98,6.2,Calm,Calm,-,N/A,,Mostly Cloudy,0,2012-10-30 20:20:00
10:50 PM,55.4,46.4,72,29.95,6.2,Calm,Calm,-,N/A,,Mostly Cloudy,0,2012-10-30 20:50:00
11:20 PM,55.4,46.4,72,29.95,6.2,Calm,Calm,-,N/A,,Mostly Cloudy,0,2012-10-30 21:20:00
11:50 PM,55.4,46.4,72,29.95,6.2,Calm,Calm,-,N/A,,Mostly Cloudy,0,2012-10-30 21:50:00